EW6230 Weather Reports


Display with metric or nautical units.
time (UTC)temp
F
wind
direction
speed
MPH
gust
MPH
rain 1hr
in
rain 24hr
in
rain mn
in
humidity
%
barometer
mb
20260506044530 50 162 0.0 0.0 0.00 0.00 0.00 1 1012.4
20260506043030 50 162 0.0 0.0 0.00 0.00 0.00 1 1012.3
20260506041546 51 162 0.0 0.0 0.00 0.00 0.00 1 1012.0
20260506040029 51 163 0.0 0.0 0.00 0.00 0.00 1 1011.8
20260506034533 51 161 0.0 0.0 0.00 0.00 0.00 1 1011.4
20260506033019 52 161 0.0 0.0 0.00 0.00 0.00 1 1011.3
20260506031515 52 161 0.0 0.0 0.00 0.00 0.00 1 1011.2
20260506030012 53 161 0.0 0.0 0.00 0.00 0.00 1 1011.2
20260506024505 54 161 0.0 0.0 0.00 0.00 0.00 5 1011.3
20260506023002 54 161 0.0 0.0 0.00 0.00 0.00 14 1011.1
20260506021557 55 161 0.0 0.0 0.00 0.00 0.00 22 1011.1
20260506020055 55 161 0.0 0.0 0.00 0.00 0.00 30 1011.2
20260506014548 56 161 0.0 0.0 0.00 0.00 0.00 38 1011.1
20260506013052 57 161 0.0 0.0 0.00 0.00 0.00 45 1011.2
20260506011543 58 238 0.0 1.0 0.00 0.00 0.00 48 1011.2
20260506010036 59 238 0.0 0.0 0.00 0.00 0.00 53 1011.2
20260506004531 60 39 0.0 1.0 0.00 0.00 0.00 56 1011.2
20260506003027 61 344 0.0 1.0 0.00 0.00 0.00 61 1011.2
20260506001522 63 340 0.0 0.0 0.00 0.00 0.00 61 1011.3
20260506000017 63 1 0.0 1.0 0.00 0.00 0.00 62 1011.4
20260505234512 64 27 0.0 5.0 0.00 0.00 0.00 61 1011.5
20260505233011 64 260 0.0 3.0 0.00 0.00 0.00 61 1011.7
20260505231504 64 322 0.0 1.0 0.00 0.00 0.00 62 1011.7
20260505230122 64 149 0.0 1.0 0.00 0.00 0.00 62 1011.8
20260505224556 65 122 0.0 1.0 0.00 0.00 0.00 61 1012.0
20260505223052 65 213 0.0 1.0 0.00 0.00 0.00 62 1012.1
20260505221555 64 312 0.0 3.0 0.00 0.00 0.00 62 1012.3
20260505220052 64 148 0.0 2.0 0.00 0.00 0.00 61 1012.3
20260505214538 64 56 0.0 1.0 0.00 0.00 0.00 62 1012.5
20260505213034 64 63 0.0 6.0 0.00 0.00 0.00 60 1012.5
20260505211531 63 20 0.0 1.0 0.00 0.00 0.00 58 1012.5
20260505210023 61 354 0.0 2.0 0.00 0.00 0.00 55 1012.6
20260505204519 61 13 0.0 1.0 0.00 0.00 0.00 54 1012.6
20260505203015 60 355 0.0 1.0 0.00 0.00 0.00 49 1012.7
20260505201511 59 301 0.0 1.0 0.00 0.00 0.00 42 1012.7
20260505200014 58 229 0.0 3.0 0.00 0.00 0.00 23 1012.7
20260505194502 57 231 0.0 1.0 0.00 0.00 0.00 23 1012.6
20260505193104 56 226 0.0 2.0 0.00 0.00 0.00 14 1012.6
20260505191602 56 203 0.0 0.0 0.00 0.00 0.00 12 1012.7
20260505190048 56 198 0.0 1.0 0.00 0.00 0.00 1 1012.7
20260505184546 55 184 0.0 0.0 0.00 0.00 0.00 1 1012.6
20260505183043 55 64 0.0 0.0 0.00 0.00 0.00 1 1012.6
20260505181543 54 98 0.0 0.0 0.00 0.00 0.00 1 1012.5
20260505180032 54 160 0.0 0.0 0.00 0.00 0.00 1 1012.4
20260505174527 54 160 0.0 0.0 0.00 0.00 0.00 1 1012.3
20260505173022 53 132 0.0 0.0 0.00 0.00 0.00 1 1012.2
20260505171518 53 132 0.0 0.0 0.00 0.00 0.00 1 1012.1
20260505170014 53 194 0.0 0.0 0.00 0.00 0.00 1 1012.0
20260505164509 52 194 0.0 0.0 0.00 0.00 0.00 1 1012.1
20260505163008 52 194 0.0 0.0 0.00 0.00 0.00 1 1012.1
20260505161610 52 194 0.0 0.0 0.00 0.00 0.00 1 1012.0
20260505153047 52 194 0.0 0.0 0.00 0.00 0.00 1 1011.8
20260505151542 51 194 0.0 0.0 0.00 0.00 0.00 1 1011.5
20260505124601 0 0.0 0.0 0.00 0.00 0.00 1010.1
20260505123056 48 192 0.0 0.0 0.00 0.00 0.00 1 1010.1
20260505121552 49 194 0.0 0.0 0.00 0.00 0.00 1 1009.9
20260505120046 48 194 0.0 0.0 0.00 0.00 0.00 1 1009.7
20260505114541 48 194 0.0 0.0 0.00 0.00 0.00 1 1009.6
20260505113037 47 194 0.0 0.0 0.00 0.00 0.00 1 1009.4
20260505111532 47 194 0.0 0.0 0.00 0.00 0.00 1 1009.2
20260505101514 48 194 0.0 0.0 0.00 0.00 0.00 1 1008.7
20260505100016 48 194 0.0 0.0 0.00 0.00 0.00 1 1008.7
20260505094505 49 194 0.0 0.0 0.00 0.00 0.00 1 1008.7
20260505093102 49 194 0.0 0.0 0.00 0.00 0.00 1 1008.6
20260505091605 49 194 0.0 0.0 0.00 0.00 0.00 1 1008.6
20260505090058 49 194 0.0 0.0 0.00 0.00 0.00 1 1008.5
20260505084554 49 194 0.0 0.0 0.00 0.00 0.00 1 1008.5
20260505083055 49 194 0.0 0.0 0.00 0.00 0.00 1 1008.3
20260505081539 49 194 0.0 0.0 0.00 0.00 0.00 1 1008.2
20260505080043 49 194 0.0 0.0 0.00 0.00 0.00 1 1008.1
20260505074530 49 194 0.0 0.0 0.00 0.00 0.00 1 1008.0
20260505073033 50 194 0.0 0.0 0.00 0.00 0.00 1 1007.8
20260505071521 50 194 0.0 0.0 0.00 0.00 0.00 1 1007.8
20260505070017 50 194 0.0 0.0 0.00 0.00 0.00 1 1007.6
20260505064512 50 194 0.0 0.0 0.00 0.00 0.00 1 1007.5
20260505063007 51 194 0.0 0.0 0.00 0.00 0.00 1 1007.2
20260505061504 51 194 0.0 0.0 0.00 0.00 0.00 1 1007.0